Time,TemperatureF,DewpointF,PressureIn,WindDirection,WindDirectionDegrees,WindSpeedMPH,WindSpeedGustMPH,Humidity,HourlyPrecipIn,Conditions,Clouds,dailyrainin,SoftwareType,DateUTC
2013-12-22 00:04:00,43.4,43.4,30.26,ESE,120,1.0,12.0,100,0.00,,,0.00,Wunderground v.1.15,2013-12-22 08:04:00,
2013-12-22 00:10:00,43.5,43.5,30.26,ESE,120,1.0,2.0,100,0.00,,,0.00,Wunderground v.1.15,2013-12-22 08:10:00,
2013-12-22 00:15:00,43.6,43.6,30.27,ESE,120,2.0,4.0,100,0.00,,,0.00,Wunderground v.1.15,2013-12-22 08:15:00,
2013-12-22 00:21:00,43.8,43.8,30.27,NE,49,4.0,7.0,100,0.00,,,0.00,Wunderground v.1.15,2013-12-22 08:21:00,
2013-12-22 00:27:00,43.8,43.8,30.27,NNE,18,6.0,7.0,100,0.00,,,0.00,Wunderground v.1.15,2013-12-22 08:27:00,
2013-12-22 00:33:00,43.8,43.8,30.27,NNE,18,5.0,6.0,100,0.00,,,0.00,Wunderground v.1.15,2013-12-22 08:33:00,
2013-12-22 00:39:00,43.9,43.9,30.27,NNE,18,5.0,6.0,100,0.00,,,0.00,Wunderground v.1.15,2013-12-22 08:39:00,
2013-12-22 00:45:00,43.9,43.9,30.27,NNE,18,3.0,4.0,100,0.00,,,0.00,Wunderground v.1.15,2013-12-22 08:45:00,
2013-12-22 00:51:00,43.9,43.9,30.27,NNE,18,2.0,2.0,100,0.00,,,0.00,Wunderground v.1.15,2013-12-22 08:51:00,
2013-12-22 00:56:00,43.8,43.8,30.27,NNE,18,2.0,4.0,100,0.00,,,0.00,Wunderground v.1.15,2013-12-22 08:56:00,
2013-12-22 01:02:00,43.3,43.3,30.28,NNE,18,1.0,4.0,100,0.00,,,0.00,Wunderground v.1.15,2013-12-22 09:02:00,
2013-12-22 01:08:00,43.1,43.1,30.28,NNE,18,1.0,4.0,100,0.00,,,0.00,Wunderground v.1.15,2013-12-22 09:08:00,
2013-12-22 01:14:00,43.7,43.7,30.28,NNE,18,3.0,5.0,100,0.00,,,0.00,Wunderground v.1.15,2013-12-22 09:14:00,
2013-12-22 01:20:00,44.0,44.0,30.28,NNE,18,4.0,4.0,100,0.00,,,0.00,Wunderground v.1.15,2013-12-22 09:20:00,
2013-12-22 01:26:00,44.1,44.1,30.28,NNE,18,4.0,5.0,100,0.00,,,0.00,Wunderground v.1.15,2013-12-22 09:26:00,
2013-12-22 01:32:00,44.1,44.1,30.28,NNE,18,4.0,4.0,100,0.00,,,0.00,Wunderground v.1.15,2013-12-22 09:32:00,
2013-12-22 01:37:00,43.8,43.8,30.27,NNE,18,2.0,4.0,100,0.00,,,0.00,Wunderground v.1.15,2013-12-22 09:37:00,
2013-12-22 01:43:00,43.5,43.5,30.27,NNE,18,2.0,4.0,100,0.00,,,0.00,Wunderground v.1.15,2013-12-22 09:43:00,
2013-12-22 01:48:00,43.3,43.3,30.27,NNE,18,2.0,4.0,100,0.00,,,0.00,Wunderground v.1.15,2013-12-22 09:48:00,
2013-12-22 01:54:00,43.2,43.2,30.27,NNE,18,1.0,4.0,100,0.00,,,0.00,Wunderground v.1.15,2013-12-22 09:54:00,
2013-12-22 02:00:00,43.3,43.3,30.27,NNE,18,1.0,4.0,100,0.00,,,0.00,Wunderground v.1.15,2013-12-22 10:00:00,
2013-12-22 02:06:00,43.4,43.4,30.28,NNE,18,2.0,4.0,100,0.00,,,0.00,Wunderground v.1.15,2013-12-22 10:06:00,
2013-12-22 02:12:00,43.5,43.5,30.28,NNE,18,1.0,4.0,100,0.00,,,0.00,Wunderground v.1.15,2013-12-22 10:12:00,
2013-12-22 02:18:00,43.6,43.6,30.28,NNE,18,2.0,4.0,100,0.00,,,0.00,Wunderground v.1.15,2013-12-22 10:18:00,
2013-12-22 02:24:00,43.6,43.6,30.28,NNE,18,3.0,4.0,100,0.00,,,0.00,Wunderground v.1.15,2013-12-22 10:24:00,
2013-12-22 02:30:00,43.7,43.7,30.28,NNE,18,1.0,1.0,100,0.00,,,0.00,Wunderground v.1.15,2013-12-22 10:30:00,
2013-12-22 02:35:00,43.7,43.7,30.28,NNE,18,1.0,4.0,100,0.00,,,0.00,Wunderground v.1.15,2013-12-22 10:35:00,
2013-12-22 02:41:00,43.4,43.4,30.28,NNE,18,1.0,4.0,100,0.00,,,0.00,Wunderground v.1.15,2013-12-22 10:41:00,
2013-12-22 02:47:00,43.2,43.2,30.29,NNE,18,2.0,4.0,100,0.00,,,0.00,Wunderground v.1.15,2013-12-22 10:47:00,
2013-12-22 02:53:00,43.0,43.0,30.29,NNE,18,2.0,4.0,100,0.00,,,0.00,Wunderground v.1.15,2013-12-22 10:53:00,
2013-12-22 02:59:00,42.9,42.9,30.30,NNE,18,3.0,4.0,100,0.00,,,0.00,Wunderground v.1.15,2013-12-22 10:59:00,
2013-12-22 03:05:00,42.7,42.7,30.30,NNE,18,2.0,4.0,100,0.00,,,0.00,Wunderground v.1.15,2013-12-22 11:05:00,
2013-12-22 03:10:00,42.5,42.5,30.30,NNE,18,2.0,4.0,100,0.00,,,0.00,Wunderground v.1.15,2013-12-22 11:10:00,
2013-12-22 03:16:00,42.6,42.6,30.30,NNE,18,2.0,4.0,100,0.00,,,0.00,Wunderground v.1.15,2013-12-22 11:16:00,
2013-12-22 03:22:00,42.7,42.7,30.30,NNE,18,2.0,4.0,100,0.00,,,0.00,Wunderground v.1.15,2013-12-22 11:22:00,
2013-12-22 03:28:00,42.7,42.7,30.30,NNE,18,2.0,4.0,100,0.00,,,0.00,Wunderground v.1.15,2013-12-22 11:28:00,
2013-12-22 03:34:00,42.9,42.9,30.30,NNE,18,1.0,4.0,100,0.00,,,0.00,Wunderground v.1.15,2013-12-22 11:34:00,
2013-12-22 03:40:00,42.8,42.8,30.31,NNE,18,1.0,4.0,100,0.00,,,0.00,Wunderground v.1.15,2013-12-22 11:40:00,
2013-12-22 03:46:00,42.8,42.8,30.31,NNE,18,1.0,4.0,100,0.00,,,0.00,Wunderground v.1.15,2013-12-22 11:46:00,
2013-12-22 03:51:00,42.9,42.9,30.31,NNE,18,1.0,4.0,100,0.00,,,0.00,Wunderground v.1.15,2013-12-22 11:51:00,
2013-12-22 03:57:00,42.9,42.9,30.30,NNE,18,2.0,4.0,100,0.00,,,0.00,Wunderground v.1.15,2013-12-22 11:57:00,
2013-12-22 04:03:00,43.0,43.0,30.30,NNE,18,2.0,4.0,100,0.00,,,0.00,Wunderground v.1.15,2013-12-22 12:03:00,
2013-12-22 04:09:00,43.1,43.1,30.31,NNE,18,1.0,4.0,100,0.00,,,0.00,Wunderground v.1.15,2013-12-22 12:09:00,
2013-12-22 04:15:00,43.1,43.1,30.30,NNE,18,1.0,4.0,100,0.00,,,0.00,Wunderground v.1.15,2013-12-22 12:15:00,
2013-12-22 04:21:00,43.0,43.0,30.30,NNE,18,1.0,4.0,100,0.00,,,0.00,Wunderground v.1.15,2013-12-22 12:21:00,
2013-12-22 04:27:00,43.1,43.1,30.30,NNE,18,0.0,4.0,100,0.00,,,0.00,Wunderground v.1.15,2013-12-22 12:27:00,
2013-12-22 04:33:00,43.2,43.2,30.30,NNE,18,0.0,4.0,100,0.00,,,0.00,Wunderground v.1.15,2013-12-22 12:33:00,
2013-12-22 04:39:00,43.1,43.1,30.30,NNE,18,1.0,4.0,100,0.00,,,0.00,Wunderground v.1.15,2013-12-22 12:39:00,
2013-12-22 04:45:00,43.1,43.1,30.30,NNE,18,1.0,4.0,100,0.00,,,0.00,Wunderground v.1.15,2013-12-22 12:45:00,
2013-12-22 04:51:00,43.1,43.1,30.30,NNE,18,0.0,4.0,100,0.00,,,0.00,Wunderground v.1.15,2013-12-22 12:51:00,
2013-12-22 04:57:00,43.2,43.2,30.31,NNE,18,0.0,4.0,100,0.00,,,0.00,Wunderground v.1.15,2013-12-22 12:57:00,
2013-12-22 05:02:00,43.3,43.3,30.30,NNE,18,0.0,4.0,100,0.00,,,0.00,Wunderground v.1.15,2013-12-22 13:02:00,
2013-12-22 05:08:00,43.4,43.4,30.30,NNE,18,0.0,4.0,100,0.00,,,0.00,Wunderground v.1.15,2013-12-22 13:08:00,
2013-12-22 05:14:00,43.5,43.5,30.30,NNE,18,0.0,4.0,100,0.00,,,0.00,Wunderground v.1.15,2013-12-22 13:14:00,
2013-12-22 05:20:00,43.6,43.6,30.30,NNE,18,1.0,1.0,100,0.00,,,0.00,Wunderground v.1.15,2013-12-22 13:20:00,
2013-12-22 05:26:00,43.5,43.5,30.30,NNE,18,1.0,4.0,100,0.00,,,0.00,Wunderground v.1.15,2013-12-22 13:26:00,
2013-12-22 05:32:00,43.5,43.5,30.30,NNE,18,1.0,4.0,100,0.00,,,0.00,Wunderground v.1.15,2013-12-22 13:32:00,
2013-12-22 05:38:00,43.5,43.5,30.30,NNE,18,1.0,4.0,100,0.00,,,0.00,Wunderground v.1.15,2013-12-22 13:38:00,
2013-12-22 05:43:00,43.5,43.5,30.30,NNE,18,1.0,4.0,100,0.00,,,0.00,Wunderground v.1.15,2013-12-22 13:43:00,
2013-12-22 05:49:00,43.4,43.4,30.30,NNE,18,1.0,4.0,100,0.00,,,0.00,Wunderground v.1.15,2013-12-22 13:49:00,
2013-12-22 05:54:00,43.4,43.4,30.31,NNE,18,1.0,4.0,100,0.00,,,0.00,Wunderground v.1.15,2013-12-22 13:54:00,
2013-12-22 06:00:00,43.4,43.4,30.31,NNE,18,1.0,4.0,100,0.00,,,0.00,Wunderground v.1.15,2013-12-22 14:00:00,
2013-12-22 06:06:00,43.3,43.3,30.31,NNE,18,0.0,4.0,100,0.00,,,0.00,Wunderground v.1.15,2013-12-22 14:06:00,
2013-12-22 06:12:00,43.2,43.2,30.31,NNE,18,1.0,4.0,100,0.00,,,0.00,Wunderground v.1.15,2013-12-22 14:12:00,
2013-12-22 06:18:00,43.2,43.2,30.31,NNE,18,1.0,4.0,100,0.00,,,0.00,Wunderground v.1.15,2013-12-22 14:18:00,
2013-12-22 06:24:00,43.2,43.2,30.31,NNE,18,1.0,4.0,100,0.00,,,0.00,Wunderground v.1.15,2013-12-22 14:24:00,
2013-12-22 06:30:00,43.2,43.2,30.31,NNE,18,1.0,4.0,100,0.00,,,0.00,Wunderground v.1.15,2013-12-22 14:30:00,
2013-12-22 06:36:00,43.2,43.2,30.30,NNE,18,1.0,4.0,100,0.00,,,0.00,Wunderground v.1.15,2013-12-22 14:36:00,
2013-12-22 06:42:00,43.1,43.1,30.30,NNE,18,1.0,4.0,100,0.00,,,0.00,Wunderground v.1.15,2013-12-22 14:42:00,
2013-12-22 06:47:00,43.1,43.1,30.30,NNE,18,1.0,4.0,100,0.00,,,0.00,Wunderground v.1.15,2013-12-22 14:47:00,
2013-12-22 06:53:00,43.1,43.1,30.31,NNE,18,1.0,4.0,100,0.00,,,0.00,Wunderground v.1.15,2013-12-22 14:53:00,
2013-12-22 06:59:00,43.1,43.1,30.31,NNE,18,1.0,4.0,100,0.00,,,0.00,Wunderground v.1.15,2013-12-22 14:59:00,
2013-12-22 07:04:00,43.1,43.1,30.31,NNE,18,1.0,4.0,100,0.00,,,0.00,Wunderground v.1.15,2013-12-22 15:04:00,
2013-12-22 07:10:00,43.1,43.1,30.31,NNE,18,2.0,4.0,100,0.00,,,0.00,Wunderground v.1.15,2013-12-22 15:10:00,
2013-12-22 07:16:00,43.2,43.2,30.30,NNE,18,2.0,4.0,100,0.00,,,0.00,Wunderground v.1.15,2013-12-22 15:16:00,
2013-12-22 07:22:00,43.3,43.3,30.30,NNE,18,2.0,4.0,100,0.00,,,0.00,Wunderground v.1.15,2013-12-22 15:22:00,
2013-12-22 07:28:00,43.4,43.4,30.31,NNE,18,1.0,4.0,100,0.00,,,0.00,Wunderground v.1.15,2013-12-22 15:28:00,
2013-12-22 07:34:00,43.5,43.5,30.31,NNE,18,1.0,4.0,100,0.00,,,0.00,Wunderground v.1.15,2013-12-22 15:34:00,
2013-12-22 07:40:00,43.5,43.5,30.31,NNE,18,1.0,4.0,100,0.00,,,0.00,Wunderground v.1.15,2013-12-22 15:40:00,
2013-12-22 07:46:00,43.5,43.5,30.31,NNE,18,2.0,4.0,100,0.00,,,0.00,Wunderground v.1.15,2013-12-22 15:46:00,
2013-12-22 07:51:00,43.5,43.5,30.31,NNE,18,2.0,4.0,100,0.00,,,0.00,Wunderground v.1.15,2013-12-22 15:51:00,
2013-12-22 07:57:00,43.4,43.4,30.31,NNE,18,3.0,4.0,100,0.00,,,0.00,Wunderground v.1.15,2013-12-22 15:57:00,
2013-12-22 08:03:00,43.4,43.4,30.31,NNE,18,3.0,4.0,100,0.00,,,0.00,Wunderground v.1.15,2013-12-22 16:03:00,
2013-12-22 08:09:00,43.5,43.5,30.32,NNE,18,2.0,4.0,100,0.00,,,0.00,Wunderground v.1.15,2013-12-22 16:09:00,
2013-12-22 08:15:00,43.6,43.6,30.32,NNE,18,1.0,4.0,100,0.00,,,0.00,Wunderground v.1.15,2013-12-22 16:15:00,
2013-12-22 08:21:00,43.6,43.6,30.32,NNE,18,1.0,4.0,100,0.00,,,0.00,Wunderground v.1.15,2013-12-22 16:21:00,
2013-12-22 08:27:00,43.7,43.7,30.32,NNE,18,1.0,4.0,100,0.00,,,0.00,Wunderground v.1.15,2013-12-22 16:27:00,
2013-12-22 08:32:00,43.8,43.8,30.32,NNE,18,1.0,4.0,100,0.00,,,0.00,Wunderground v.1.15,2013-12-22 16:32:00,
2013-12-22 08:38:00,44.0,44.0,30.32,NNE,18,1.0,4.0,100,0.00,,,0.00,Wunderground v.1.15,2013-12-22 16:38:00,
2013-12-22 08:44:00,44.2,44.2,30.32,NNE,18,1.0,4.0,100,0.00,,,0.00,Wunderground v.1.15,2013-12-22 16:44:00,
2013-12-22 08:49:00,44.3,44.3,30.32,NNE,18,1.0,4.0,100,0.00,,,0.00,Wunderground v.1.15,2013-12-22 16:49:00,
2013-12-22 08:55:00,44.3,44.3,30.32,NNE,18,1.0,4.0,100,0.00,,,0.00,Wunderground v.1.15,2013-12-22 16:55:00,
2013-12-22 09:01:00,44.2,44.2,30.33,NNE,18,1.0,4.0,100,0.00,,,0.00,Wunderground v.1.15,2013-12-22 17:01:00,
2013-12-22 09:07:00,44.2,44.2,30.32,NNE,18,1.0,4.0,100,0.00,,,0.00,Wunderground v.1.15,2013-12-22 17:07:00,
2013-12-22 09:12:00,44.2,44.2,30.33,NNE,18,1.0,4.0,100,0.00,,,0.00,Wunderground v.1.15,2013-12-22 17:12:00,
2013-12-22 09:18:00,44.3,44.3,30.33,NNE,18,0.0,4.0,100,0.00,,,0.00,Wunderground v.1.15,2013-12-22 17:18:00,
2013-12-22 09:24:00,44.5,44.5,30.33,NNE,18,0.0,4.0,100,0.00,,,0.00,Wunderground v.1.15,2013-12-22 17:24:00,
2013-12-22 09:30:00,44.8,44.8,30.34,NNE,18,1.0,4.0,100,0.00,,,0.00,Wunderground v.1.15,2013-12-22 17:30:00,
2013-12-22 09:36:00,45.1,45.1,30.34,NNE,18,1.0,4.0,100,0.00,,,0.00,Wunderground v.1.15,2013-12-22 17:36:00,
2013-12-22 09:42:00,45.0,45.0,30.34,NNE,18,1.0,4.0,100,0.00,,,0.00,Wunderground v.1.15,2013-12-22 17:42:00,
2013-12-22 09:47:00,45.0,45.0,30.35,NNE,18,2.0,4.0,100,0.00,,,0.00,Wunderground v.1.15,2013-12-22 17:47:00,
2013-12-22 09:53:00,45.2,45.2,30.35,NNE,18,2.0,4.0,100,0.00,,,0.00,Wunderground v.1.15,2013-12-22 17:53:00,
2013-12-22 09:59:00,45.4,45.4,30.35,NNE,18,2.0,4.0,100,0.00,,,0.00,Wunderground v.1.15,2013-12-22 17:59:00,
2013-12-22 10:05:00,45.7,45.7,30.35,NNE,18,2.0,4.0,100,0.00,,,0.00,Wunderground v.1.15,2013-12-22 18:05:00,
2013-12-22 10:11:00,45.9,45.9,30.35,NNE,18,2.0,4.0,100,0.00,,,0.00,Wunderground v.1.15,2013-12-22 18:11:00,
2013-12-22 10:17:00,46.2,46.2,30.36,NNE,18,2.0,4.0,100,0.00,,,0.00,Wunderground v.1.15,2013-12-22 18:17:00,
2013-12-22 10:23:00,46.5,46.5,30.36,NNE,18,2.0,4.0,100,0.00,,,0.00,Wunderground v.1.15,2013-12-22 18:23:00,
2013-12-22 10:29:00,46.8,46.8,30.36,NNE,18,1.0,4.0,100,0.00,,,0.00,Wunderground v.1.15,2013-12-22 18:29:00,
2013-12-22 10:35:00,47.3,47.3,30.36,NNE,18,1.0,4.0,100,0.00,,,0.00,Wunderground v.1.15,2013-12-22 18:35:00,
2013-12-22 10:41:00,47.4,47.4,30.36,NNE,18,1.0,4.0,100,0.00,,,0.00,Wunderground v.1.15,2013-12-22 18:41:00,
2013-12-22 10:47:00,47.5,47.5,30.36,NNE,18,1.0,4.0,100,0.00,,,0.00,Wunderground v.1.15,2013-12-22 18:47:00,
2013-12-22 10:52:00,47.8,47.8,30.36,NNE,18,0.0,4.0,100,0.00,,,0.00,Wunderground v.1.15,2013-12-22 18:52:00,
2013-12-22 10:58:00,48.2,48.2,30.36,NNE,18,0.0,4.0,100,0.00,,,0.00,Wunderground v.1.15,2013-12-22 18:58:00,
2013-12-22 11:03:00,48.0,48.0,30.36,NNE,18,0.0,4.0,100,0.00,,,0.00,Wunderground v.1.15,2013-12-22 19:03:00,
2013-12-22 11:09:00,48.0,48.0,30.36,NNE,18,0.0,4.0,100,0.00,,,0.00,Wunderground v.1.15,2013-12-22 19:09:00,
2013-12-22 11:15:00,47.8,47.8,30.36,NNE,18,0.0,4.0,100,0.00,,,0.00,Wunderground v.1.15,2013-12-22 19:15:00,
2013-12-22 11:21:00,47.7,47.7,30.36,NNE,18,1.0,4.0,100,0.00,,,0.00,Wunderground v.1.15,2013-12-22 19:21:00,
2013-12-22 11:26:00,47.8,47.8,30.35,NNE,18,0.0,4.0,100,0.00,,,0.00,Wunderground v.1.15,2013-12-22 19:26:00,
2013-12-22 11:32:00,47.6,47.6,30.35,NNE,18,0.0,4.0,100,0.00,,,0.00,Wunderground v.1.15,2013-12-22 19:32:00,
2013-12-22 11:38:00,47.7,47.7,30.35,NNE,18,0.0,4.0,100,0.00,,,0.00,Wunderground v.1.15,2013-12-22 19:38:00,
2013-12-22 11:44:00,47.9,47.9,30.35,NNE,18,0.0,4.0,100,0.00,,,0.00,Wunderground v.1.15,2013-12-22 19:44:00,
2013-12-22 11:50:00,48.0,48.0,30.35,NNE,18,0.0,4.0,100,0.00,,,0.00,Wunderground v.1.15,2013-12-22 19:50:00,
2013-12-22 11:56:00,47.7,47.7,30.35,NNE,18,0.0,4.0,100,0.00,,,0.00,Wunderground v.1.15,2013-12-22 19:56:00,
2013-12-22 12:02:00,47.3,47.3,30.35,NNE,18,1.0,4.0,100,0.00,,,0.00,Wunderground v.1.15,2013-12-22 20:02:00,
2013-12-22 12:08:00,47.2,47.2,30.35,NNE,18,2.0,4.0,100,0.00,,,0.00,Wunderground v.1.15,2013-12-22 20:08:00,
2013-12-22 12:14:00,47.0,47.0,30.34,NNE,18,2.0,4.0,100,0.00,,,0.00,Wunderground v.1.15,2013-12-22 20:14:00,
2013-12-22 12:20:00,46.9,46.9,30.34,NNE,18,1.0,1.0,100,0.00,,,0.00,Wunderground v.1.15,2013-12-22 20:20:00,
2013-12-22 12:25:00,47.0,47.0,30.34,NNE,18,1.0,4.0,100,0.00,,,0.00,Wunderground v.1.15,2013-12-22 20:25:00,
2013-12-22 12:31:00,46.9,46.9,30.34,NNE,18,1.0,4.0,100,0.00,,,0.00,Wunderground v.1.15,2013-12-22 20:31:00,
2013-12-22 12:37:00,47.0,47.0,30.34,NNE,18,0.0,4.0,100,0.00,,,0.00,Wunderground v.1.15,2013-12-22 20:37:00,
2013-12-22 12:43:00,46.8,46.8,30.34,NNE,18,1.0,4.0,100,0.00,,,0.00,Wunderground v.1.15,2013-12-22 20:43:00,
2013-12-22 12:49:00,47.1,47.1,30.34,NNE,18,1.0,4.0,100,0.00,,,0.00,Wunderground v.1.15,2013-12-22 20:49:00,
2013-12-22 12:55:00,46.9,46.9,30.34,NNE,18,2.0,4.0,100,0.00,,,0.00,Wunderground v.1.15,2013-12-22 20:55:00,
2013-12-22 13:01:00,46.9,46.6,30.33,NNE,18,2.0,4.0,99,0.00,,,0.00,Wunderground v.1.15,2013-12-22 21:01:00,
2013-12-22 13:06:00,46.8,46.5,30.33,NNE,18,2.0,4.0,99,0.00,,,0.00,Wunderground v.1.15,2013-12-22 21:06:00,
2013-12-22 13:12:00,47.2,47.2,30.33,NNE,18,2.0,4.0,100,0.00,,,0.00,Wunderground v.1.15,2013-12-22 21:12:00,
2013-12-22 13:18:00,47.1,47.1,30.33,NNE,18,2.0,4.0,100,0.00,,,0.00,Wunderground v.1.15,2013-12-22 21:18:00,
2013-12-22 13:23:00,47.2,46.9,30.33,NNE,18,1.0,4.0,99,0.00,,,0.00,Wunderground v.1.15,2013-12-22 21:23:00,
2013-12-22 13:29:00,47.2,46.9,30.33,NNE,18,2.0,4.0,99,0.00,,,0.00,Wunderground v.1.15,2013-12-22 21:29:00,
2013-12-22 13:35:00,47.5,47.5,30.33,NNE,18,2.0,4.0,100,0.00,,,0.00,Wunderground v.1.15,2013-12-22 21:35:00,
2013-12-22 13:36:00,47.5,47.5,30.33,NNE,18,2.0,4.0,100,0.00,,,0.00,Wunderground v.1.15,2013-12-22 21:36:00,
2013-12-22 13:42:00,47.3,47.0,30.33,NNE,18,2.0,4.0,99,0.00,,,0.00,Wunderground v.1.15,2013-12-22 21:42:00,
2013-12-22 13:47:00,47.2,46.9,30.33,NNE,18,2.0,4.0,99,0.00,,,0.00,Wunderground v.1.15,2013-12-22 21:47:00,
2013-12-22 13:53:00,47.1,46.8,30.33,NNE,18,2.0,4.0,99,0.00,,,0.00,Wunderground v.1.15,2013-12-22 21:53:00,
2013-12-22 13:59:00,47.2,46.9,30.33,NNE,18,2.0,4.0,99,0.00,,,0.00,Wunderground v.1.15,2013-12-22 21:59:00,
2013-12-22 14:05:00,47.4,47.1,30.32,NNE,18,2.0,4.0,99,0.00,,,0.00,Wunderground v.1.15,2013-12-22 22:05:00,
2013-12-22 14:11:00,47.9,47.6,30.32,NNE,18,1.0,4.0,99,0.00,,,0.00,Wunderground v.1.15,2013-12-22 22:11:00,
2013-12-22 14:17:00,48.0,47.7,30.33,NNW,336,2.0,6.0,99,0.00,,,0.00,Wunderground v.1.15,2013-12-22 22:17:00,
2013-12-22 14:23:00,47.6,47.1,30.33,NNW,328,4.0,4.0,98,0.00,,,0.00,Wunderground v.1.15,2013-12-22 22:23:00,
2013-12-22 14:28:00,47.5,47.0,30.32,NNW,328,3.0,4.0,98,0.00,,,0.00,Wunderground v.1.15,2013-12-22 22:28:00,
2013-12-22 14:34:00,47.2,46.7,30.33,NNW,328,3.0,4.0,98,0.00,,,0.00,Wunderground v.1.15,2013-12-22 22:34:00,
2013-12-22 14:40:00,47.1,46.6,30.33,NNW,328,3.0,3.0,98,0.00,,,0.00,Wunderground v.1.15,2013-12-22 22:40:00,
2013-12-22 14:46:00,47.0,46.5,30.33,NNW,328,3.0,4.0,98,0.00,,,0.00,Wunderground v.1.15,2013-12-22 22:46:00,
2013-12-22 14:52:00,47.1,46.8,30.33,NNW,328,3.0,4.0,99,0.00,,,0.00,Wunderground v.1.15,2013-12-22 22:52:00,
2013-12-22 14:58:00,46.9,46.4,30.33,NNW,328,3.0,5.0,98,0.00,,,0.00,Wunderground v.1.15,2013-12-22 22:58:00,
2013-12-22 15:04:00,46.9,46.4,30.33,NNW,328,3.0,4.0,98,0.00,,,0.00,Wunderground v.1.15,2013-12-22 23:04:00,
2013-12-22 15:09:00,46.8,46.3,30.33,NNW,328,3.0,4.0,98,0.00,,,0.00,Wunderground v.1.15,2013-12-22 23:09:00,
2013-12-22 15:15:00,46.7,46.4,30.33,NNW,331,4.0,7.0,99,0.00,,,0.00,Wunderground v.1.15,2013-12-22 23:15:00,
2013-12-22 15:21:00,46.6,46.1,30.33,NNW,332,4.0,4.0,98,0.00,,,0.00,Wunderground v.1.15,2013-12-22 23:21:00,
2013-12-22 15:27:00,46.6,46.3,30.33,NNW,332,4.0,5.0,99,0.00,,,0.00,Wunderground v.1.15,2013-12-22 23:27:00,
2013-12-22 15:33:00,46.6,46.3,30.33,NNW,332,4.0,4.0,99,0.00,,,0.00,Wunderground v.1.15,2013-12-22 23:33:00,
2013-12-22 15:38:00,46.5,46.2,30.34,NNW,332,4.0,6.0,99,0.00,,,0.00,Wunderground v.1.15,2013-12-22 23:38:00,
2013-12-22 15:44:00,46.4,46.1,30.34,NNW,333,4.0,6.0,99,0.00,,,0.00,Wunderground v.1.15,2013-12-22 23:44:00,
2013-12-22 15:49:00,46.4,46.1,30.34,NNW,334,3.0,6.0,99,0.00,,,0.00,Wunderground v.1.15,2013-12-22 23:49:00,
2013-12-22 15:55:00,46.3,46.0,30.34,NNW,334,3.0,5.0,99,0.00,,,0.00,Wunderground v.1.15,2013-12-22 23:55:00,
2013-12-22 16:01:00,46.1,45.8,30.34,NNW,334,5.0,5.0,99,0.00,,,0.00,Wunderground v.1.15,2013-12-23 00:01:00,
2013-12-22 16:07:00,46.0,45.7,30.34,NNW,334,4.0,5.0,99,0.00,,,0.00,Wunderground v.1.15,2013-12-23 00:07:00,
2013-12-22 16:13:00,46.0,45.7,30.34,NNW,334,4.0,4.0,99,0.00,,,0.00,Wunderground v.1.15,2013-12-23 00:13:00,
2013-12-22 16:18:00,45.9,45.6,30.34,NNW,334,3.0,4.0,99,0.00,,,0.00,Wunderground v.1.15,2013-12-23 00:18:00,
2013-12-22 16:24:00,45.9,45.6,30.34,NNW,334,2.0,4.0,99,0.00,,,0.00,Wunderground v.1.15,2013-12-23 00:24:00,
2013-12-22 16:29:00,45.8,45.5,30.34,NNW,334,1.0,4.0,99,0.00,,,0.00,Wunderground v.1.15,2013-12-23 00:29:00,
2013-12-22 16:35:00,45.9,45.6,30.34,NNW,334,1.0,4.0,99,0.00,,,0.00,Wunderground v.1.15,2013-12-23 00:35:00,
2013-12-22 16:41:00,45.9,45.6,30.34,NNW,334,2.0,4.0,99,0.00,,,0.00,Wunderground v.1.15,2013-12-23 00:41:00,
2013-12-22 16:47:00,45.8,45.5,30.34,NNW,334,3.0,5.0,99,0.00,,,0.00,Wunderground v.1.15,2013-12-23 00:47:00,
2013-12-22 16:53:00,45.8,45.5,30.35,NNW,334,2.0,4.0,99,0.00,,,0.00,Wunderground v.1.15,2013-12-23 00:53:00,
2013-12-22 16:58:00,45.7,45.4,30.34,NNW,334,2.0,4.0,99,0.00,,,0.00,Wunderground v.1.15,2013-12-23 00:58:00,
2013-12-22 17:03:00,45.7,45.4,30.35,NNW,334,2.0,4.0,99,0.00,,,0.00,Wunderground v.1.15,2013-12-23 01:03:00,
2013-12-22 17:09:00,45.8,45.5,30.34,NNW,334,1.0,4.0,99,0.00,,,0.00,Wunderground v.1.15,2013-12-23 01:09:00,
2013-12-22 17:15:00,45.8,45.5,30.34,NNW,334,1.0,4.0,99,0.00,,,0.00,Wunderground v.1.15,2013-12-23 01:15:00,
2013-12-22 17:21:00,45.9,45.6,30.34,NNW,334,3.0,4.0,99,0.00,,,0.00,Wunderground v.1.15,2013-12-23 01:21:00,
2013-12-22 17:27:00,45.9,45.6,30.34,NNW,334,2.0,4.0,99,0.00,,,0.00,Wunderground v.1.15,2013-12-23 01:27:00,
2013-12-22 17:32:00,45.9,45.6,30.35,NNW,334,1.0,4.0,99,0.00,,,0.00,Wunderground v.1.15,2013-12-23 01:32:00,
2013-12-22 17:38:00,45.8,45.5,30.34,NNW,334,1.0,4.0,99,0.00,,,0.00,Wunderground v.1.15,2013-12-23 01:38:00,
2013-12-22 17:44:00,45.8,45.5,30.34,NNW,334,1.0,4.0,99,0.00,,,0.00,Wunderground v.1.15,2013-12-23 01:44:00,
2013-12-22 17:50:00,45.8,45.5,30.34,NNW,334,1.0,1.0,99,0.00,,,0.00,Wunderground v.1.15,2013-12-23 01:50:00,
2013-12-22 17:56:00,45.7,45.4,30.34,NNW,334,1.0,4.0,99,0.00,,,0.00,Wunderground v.1.15,2013-12-23 01:56:00,
2013-12-22 18:02:00,45.7,45.4,30.34,NNW,334,0.0,4.0,99,0.00,,,0.00,Wunderground v.1.15,2013-12-23 02:02:00,
2013-12-22 18:08:00,45.6,45.3,30.34,NNW,334,0.0,4.0,99,0.00,,,0.00,Wunderground v.1.15,2013-12-23 02:08:00,
2013-12-22 18:14:00,45.5,45.2,30.33,NNW,334,0.0,4.0,99,0.00,,,0.00,Wunderground v.1.15,2013-12-23 02:14:00,
2013-12-22 18:20:00,45.2,44.9,30.33,NNW,334,1.0,1.0,99,0.00,,,0.00,Wunderground v.1.15,2013-12-23 02:20:00,
2013-12-22 18:25:00,45.1,44.8,30.33,NNW,334,0.0,4.0,99,0.00,,,0.00,Wunderground v.1.15,2013-12-23 02:25:00,
2013-12-22 18:31:00,44.9,44.6,30.33,NNW,334,0.0,4.0,99,0.00,,,0.00,Wunderground v.1.15,2013-12-23 02:31:00,
2013-12-22 18:37:00,44.7,44.4,30.33,NNW,334,0.0,4.0,99,0.00,,,0.00,Wunderground v.1.15,2013-12-23 02:37:00,
2013-12-22 18:43:00,44.6,44.3,30.33,NNW,334,0.0,4.0,99,0.00,,,0.00,Wunderground v.1.15,2013-12-23 02:43:00,
2013-12-22 18:49:00,44.5,44.2,30.34,NNW,334,0.0,4.0,99,0.00,,,0.00,Wunderground v.1.15,2013-12-23 02:49:00,
2013-12-22 18:55:00,44.5,44.2,30.34,NNW,334,0.0,4.0,99,0.00,,,0.00,Wunderground v.1.15,2013-12-23 02:55:00,
2013-12-22 19:01:00,44.4,44.1,30.33,NNW,334,0.0,4.0,99,0.00,,,0.00,Wunderground v.1.15,2013-12-23 03:01:00,
2013-12-22 19:07:00,44.0,43.7,30.34,NNW,334,0.0,4.0,99,0.00,,,0.00,Wunderground v.1.15,2013-12-23 03:07:00,
2013-12-22 19:13:00,43.9,43.6,30.34,NNW,334,2.0,5.0,99,0.00,,,0.00,Wunderground v.1.15,2013-12-23 03:13:00,
2013-12-22 19:19:00,43.7,43.4,30.34,NNW,334,3.0,5.0,99,0.00,,,0.00,Wunderground v.1.15,2013-12-23 03:19:00,
2013-12-22 19:25:00,43.7,43.4,30.34,NNW,334,2.0,4.0,99,0.00,,,0.00,Wunderground v.1.15,2013-12-23 03:25:00,
2013-12-22 19:31:00,43.9,43.6,30.34,NNW,334,3.0,4.0,99,0.00,,,0.00,Wunderground v.1.15,2013-12-23 03:31:00,
2013-12-22 19:37:00,44.1,44.1,30.34,NNW,334,3.0,4.0,100,0.00,,,0.00,Wunderground v.1.15,2013-12-23 03:37:00,
2013-12-22 19:43:00,44.3,44.3,30.34,NNW,334,1.0,4.0,100,0.00,,,0.00,Wunderground v.1.15,2013-12-23 03:43:00,
2013-12-22 19:48:00,44.3,44.3,30.34,NNW,334,1.0,4.0,100,0.00,,,0.00,Wunderground v.1.15,2013-12-23 03:48:00,
2013-12-22 19:54:00,44.3,44.3,30.34,NNW,334,1.0,4.0,100,0.00,,,0.00,Wunderground v.1.15,2013-12-23 03:54:00,
2013-12-22 20:00:00,44.2,44.2,30.34,NNW,334,3.0,3.0,100,0.00,,,0.00,Wunderground v.1.15,2013-12-23 04:00:00,
2013-12-22 20:05:00,44.2,44.2,30.34,NNW,334,3.0,4.0,100,0.00,,,0.00,Wunderground v.1.15,2013-12-23 04:05:00,
2013-12-22 20:11:00,44.2,44.2,30.34,NNW,334,2.0,3.0,100,0.00,,,0.00,Wunderground v.1.15,2013-12-23 04:11:00,
2013-12-22 20:17:00,44.1,44.1,30.34,NNW,334,2.0,4.0,100,0.00,,,0.00,Wunderground v.1.15,2013-12-23 04:17:00,
2013-12-22 20:23:00,44.0,44.0,30.34,NNW,335,3.0,5.0,100,0.00,,,0.00,Wunderground v.1.15,2013-12-23 04:23:00,
2013-12-22 20:29:00,43.8,43.5,30.34,NNW,335,3.0,5.0,99,0.00,,,0.00,Wunderground v.1.15,2013-12-23 04:29:00,
2013-12-22 20:35:00,43.6,43.6,30.34,NNW,335,2.0,4.0,100,0.00,,,0.00,Wunderground v.1.15,2013-12-23 04:35:00,
2013-12-22 20:41:00,43.6,43.6,30.34,NNW,335,2.0,4.0,100,0.00,,,0.00,Wunderground v.1.15,2013-12-23 04:41:00,
2013-12-22 20:47:00,43.5,43.5,30.34,NNW,335,1.0,4.0,100,0.00,,,0.00,Wunderground v.1.15,2013-12-23 04:47:00,
2013-12-22 20:53:00,43.4,43.1,30.35,NNW,335,0.0,4.0,99,0.00,,,0.00,Wunderground v.1.15,2013-12-23 04:53:00,
2013-12-22 20:58:00,43.4,43.4,30.35,NNW,335,0.0,4.0,100,0.00,,,0.00,Wunderground v.1.15,2013-12-23 04:58:00,
2013-12-22 21:01:00,43.4,43.4,30.35,NNW,335,0.0,4.0,100,0.00,,,0.00,Wunderground v.1.15,2013-12-23 05:01:00,
2013-12-22 21:02:00,43.4,43.4,30.35,NNW,335,0.0,4.0,100,0.00,,,0.00,Wunderground v.1.15,2013-12-23 05:02:00,
2013-12-22 21:04:00,43.4,43.4,30.35,NNW,335,0.0,4.0,100,0.00,,,0.00,Wunderground v.1.15,2013-12-23 05:04:00,
2013-12-22 21:06:00,43.3,43.3,30.35,NNW,335,0.0,4.0,100,0.00,,,0.00,Wunderground v.1.15,2013-12-23 05:06:00,
2013-12-22 21:08:00,43.3,43.3,30.35,NNW,335,0.0,4.0,100,0.00,,,0.00,Wunderground v.1.15,2013-12-23 05:08:00,
2013-12-22 21:12:00,43.3,43.3,30.35,NNW,335,0.0,4.0,100,0.00,,,0.00,Wunderground v.1.15,2013-12-23 05:12:00,
2013-12-22 21:18:00,43.3,43.3,30.34,NNW,335,1.0,4.0,100,0.00,,,0.00,Wunderground v.1.15,2013-12-23 05:18:00,
2013-12-22 21:24:00,43.1,43.1,30.34,NNW,335,0.0,4.0,100,0.00,,,0.00,Wunderground v.1.15,2013-12-23 05:24:00,
2013-12-22 21:29:00,43.1,43.1,30.34,NNW,335,1.0,4.0,100,0.00,,,0.00,Wunderground v.1.15,2013-12-23 05:29:00,
2013-12-22 21:35:00,43.1,43.1,30.35,NNW,335,1.0,4.0,100,0.00,,,0.00,Wunderground v.1.15,2013-12-23 05:35:00,
2013-12-22 21:41:00,43.1,43.1,30.34,NNW,335,1.0,4.0,100,0.00,,,0.00,Wunderground v.1.15,2013-12-23 05:41:00,
2013-12-22 21:47:00,43.1,43.1,30.35,NNW,335,0.0,4.0,100,0.00,,,0.00,Wunderground v.1.15,2013-12-23 05:47:00,
2013-12-22 21:53:00,43.0,43.0,30.35,NNW,335,0.0,4.0,100,0.00,,,0.00,Wunderground v.1.15,2013-12-23 05:53:00,
2013-12-22 21:58:00,42.9,42.9,30.35,NNW,335,0.0,4.0,100,0.00,,,0.00,Wunderground v.1.15,2013-12-23 05:58:00,
2013-12-22 22:04:00,42.9,42.9,30.35,NNW,335,0.0,4.0,100,0.00,,,0.00,Wunderground v.1.15,2013-12-23 06:04:00,
2013-12-22 22:10:00,43.0,43.0,30.36,NNW,335,1.0,4.0,100,0.00,,,0.00,Wunderground v.1.15,2013-12-23 06:10:00,
2013-12-22 22:16:00,43.0,43.0,30.36,NNW,335,1.0,4.0,100,0.00,,,0.00,Wunderground v.1.15,2013-12-23 06:16:00,
2013-12-22 22:22:00,43.1,43.1,30.36,NNW,335,0.0,4.0,100,0.00,,,0.00,Wunderground v.1.15,2013-12-23 06:22:00,
2013-12-22 22:28:00,43.1,43.1,30.36,NNW,335,0.0,4.0,100,0.00,,,0.00,Wunderground v.1.15,2013-12-23 06:28:00,
2013-12-22 22:34:00,43.1,43.1,30.36,NNW,335,0.0,4.0,100,0.00,,,0.00,Wunderground v.1.15,2013-12-23 06:34:00,
2013-12-22 22:40:00,43.1,43.1,30.36,NNW,335,0.0,4.0,100,0.00,,,0.00,Wunderground v.1.15,2013-12-23 06:40:00,
2013-12-22 22:46:00,43.1,43.1,30.36,NNW,335,0.0,4.0,100,0.00,,,0.00,Wunderground v.1.15,2013-12-23 06:46:00,
2013-12-22 22:52:00,42.8,42.5,30.36,NNW,335,1.0,4.0,99,0.00,,,0.00,Wunderground v.1.15,2013-12-23 06:52:00,
2013-12-22 22:58:00,42.6,42.6,30.36,NNW,335,1.0,4.0,100,0.00,,,0.00,Wunderground v.1.15,2013-12-23 06:58:00,
2013-12-22 23:04:00,42.4,42.4,30.36,NNW,335,0.0,4.0,100,0.00,,,0.00,Wunderground v.1.15,2013-12-23 07:04:00,
2013-12-22 23:10:00,42.1,41.8,30.36,NNW,335,0.0,4.0,99,0.00,,,0.00,Wunderground v.1.15,2013-12-23 07:10:00,
2013-12-22 23:15:00,41.9,41.6,30.36,NNW,335,0.0,4.0,99,0.00,,,0.00,Wunderground v.1.15,2013-12-23 07:15:00,
2013-12-22 23:21:00,41.6,41.3,30.36,NNW,335,0.0,4.0,99,0.00,,,0.00,Wunderground v.1.15,2013-12-23 07:21:00,
2013-12-22 23:27:00,41.4,41.1,30.36,NNW,335,0.0,4.0,99,0.00,,,0.00,Wunderground v.1.15,2013-12-23 07:27:00,
2013-12-22 23:33:00,41.2,41.2,30.36,NNW,335,0.0,4.0,100,0.00,,,0.00,Wunderground v.1.15,2013-12-23 07:33:00,
2013-12-22 23:39:00,41.1,40.8,30.36,NNW,335,0.0,4.0,99,0.00,,,0.00,Wunderground v.1.15,2013-12-23 07:39:00,
2013-12-22 23:45:00,41.3,41.3,30.36,NNW,335,1.0,4.0,100,0.00,,,0.00,Wunderground v.1.15,2013-12-23 07:45:00,
2013-12-22 23:51:00,41.5,41.5,30.36,NNW,335,1.0,4.0,100,0.00,,,0.00,Wunderground v.1.15,2013-12-23 07:51:00,
2013-12-22 23:57:00,41.5,41.5,30.36,NNW,335,0.0,4.0,100,0.00,,,0.00,Wunderground v.1.15,2013-12-23 07:57:00,